• In Portugal
  • List of Countries
  • For 7 days
  • Water Temperature
  • Satellite Maps
  • Weather Map
  • Weather Widgets
  • user-avatar
    Login

    Hourly Weather Ongandyera

    Today, 19 February, Monday

    Time Temperature Precipitation Wind Pressure Humidity
    00:00 +28°C° 0 mm 6 mps 666 mmHg 30%
    01:00 +27°C° 0 mm 5 mps 666 mmHg 31%
    02:00 +26°C° 0 mm 4 mps 666 mmHg 33%
    03:00 +25°C° 0 mm 3 mps 666 mmHg 34%
    04:00 +25°C° 0 mm 3 mps 666 mmHg 36%
    05:00 +25°C° 0 mm 2 mps 666 mmHg 36%
    06:00 +25°C° 0 mm 2 mps 667 mmHg 36%
    07:00 +25°C° 0 mm 2 mps 667 mmHg 36%
    08:00 +27°C° 0 mm 3 mps 668 mmHg 31%
    09:00 +29°C° 0 mm 3 mps 668 mmHg 26%
    10:00 +32°C° 0 mm 4 mps 668 mmHg 21%
    11:00 +33°C° 0 mm 4 mps 668 mmHg 19%
    12:00 +35°C° 0 mm 4 mps 668 mmHg 17%
    13:00 +36°C° 0 mm 5 mps 668 mmHg 15%
    14:00 +37°C° 0 mm 4 mps 667 mmHg 15%
    15:00 +37°C° 0 mm 4 mps 667 mmHg 15%
    16:00 +37°C° 0 mm 4 mps 666 mmHg 15%
    17:00 +36°C° 0 mm 3 mps 666 mmHg 16%
    18:00 +35°C° 0 mm 3 mps 666 mmHg 18%
    19:00 +32°C° 0 mm 2 mps 666 mmHg 20%
    20:00 +31°C° 0 mm 3 mps 667 mmHg 21%
    21:00 +30°C° 0 mm 4 mps 667 mmHg 22%
    22:00 +29°C° 0 mm 5 mps 667 mmHg 23%
    23:00 +29°C° 0 mm 5 mps 667 mmHg 25%

    Tomorrow, 20 February, Tuesday

    Time Temperature Precipitation Wind Pressure Humidity
    00:00 +28°C° 0 mm 5 mps 667 mmHg 26%
    01:00 +27°C° 0 mm 5 mps 667 mmHg 28%
    02:00 +26°C° 0 mm 4 mps 667 mmHg 30%
    03:00 +25°C° 0 mm 3 mps 666 mmHg 32%
    04:00 +25°C° 0 mm 3 mps 666 mmHg 34%
    05:00 +25°C° 0 mm 3 mps 667 mmHg 34%
    06:00 +25°C° 0 mm 3 mps 667 mmHg 34%
    07:00 +25°C° 0 mm 3 mps 667 mmHg 34%
    08:00 +27°C° 0 mm 4 mps 668 mmHg 29%
    09:00 +30°C° 0 mm 5 mps 668 mmHg 23%
    10:00 +33°C° 0 mm 6 mps 669 mmHg 18%
    11:00 +35°C° 0 mm 6 mps 668 mmHg 17%
    12:00 +36°C° 0 mm 5 mps 668 mmHg 15%
    13:00 +39°C° 0 mm 5 mps 667 mmHg 14%
    14:00 +39°C° 0 mm 5 mps 667 mmHg 14%
    15:00 +38°C° 0 mm 4 mps 666 mmHg 14%
    16:00 +38°C° 0 mm 4 mps 665 mmHg 14%
    17:00 +36°C° 0 mm 4 mps 665 mmHg 17%
    18:00 +35°C° 0 mm 3 mps 665 mmHg 19%
    19:00 +34°C° 0 mm 3 mps 666 mmHg 21%
    20:00 +33°C° 0 mm 4 mps 666 mmHg 22%
    21:00 +32°C° 0 mm 4 mps 667 mmHg 22%
    22:00 +30°C° 0 mm 5 mps 668 mmHg 23%
    23:00 +29°C° 0 mm 5 mps 667 mmHg 24%

    Day after tomorrow, 21 February, Wednesday

    Time Temperature Precipitation Wind Pressure Humidity
    00:00 +29°C° 0 mm 5 mps 667 mmHg 25%
    01:00 +28°C° 0 mm 5 mps 667 mmHg 26%
    02:00 +28°C° 0 mm 5 mps 666 mmHg 27%
    03:00 +27°C° 0 mm 4 mps 666 mmHg 28%
    04:00 +27°C° 0 mm 4 mps 666 mmHg 30%
    05:00 +26°C° 0 mm 4 mps 666 mmHg 32%
    06:00 +26°C° 0 mm 3 mps 667 mmHg 35%
    07:00 +26°C° 0 mm 3 mps 667 mmHg 37%
    08:00 +28°C° 0 mm 3 mps 667 mmHg 35%
    09:00 +29°C° 0 mm 3 mps 668 mmHg 33%
    10:00 +32°C° 0 mm 4 mps 668 mmHg 30%
    11:00 +33°C° 0 mm 4 mps 667 mmHg 29%
    12:00 +34°C° 0 mm 4 mps 667 mmHg 27%
    13:00 +35°C° 0 mm 4 mps 666 mmHg 25%
    14:00 +36°C° 0 mm 4 mps 666 mmHg 25%
    15:00 +36°C° 0 mm 5 mps 665 mmHg 24%
    16:00 +36°C° 0 mm 5 mps 665 mmHg 24%
    17:00 +35°C° 0 mm 4 mps 665 mmHg 25%
    18:00 +34°C° 0 mm 4 mps 665 mmHg 25%
    19:00 +33°C° 0 mm 3 mps 665 mmHg 26%
    20:00 +30°C° 0 mm 4 mps 666 mmHg 26%
    21:00 +29°C° 0 mm 4 mps 666 mmHg 26%
    22:00 +28°C° 0 mm 5 mps 666 mmHg 26%
    23:00 +27°C° 0 mm 5 mps 666 mmHg 29%

    22 February, Thursday

    Time Temperature Precipitation Wind Pressure Humidity
    00:00 +26°C° 0 mm 4 mps 666 mmHg 31%
    01:00 +25°C° 0 mm 4 mps 665 mmHg 34%
    02:00 +25°C° 0 mm 3 mps 665 mmHg 35%
    03:00 +24°C° 0 mm 3 mps 665 mmHg 36%
    04:00 +24°C° 0 mm 3 mps 665 mmHg 37%
    05:00 +24°C° 0 mm 3 mps 665 mmHg 38%
    06:00 +24°C° 0 mm 3 mps 666 mmHg 39%
    07:00 +23°C° 0 mm 4 mps 666 mmHg 40%
    08:00 +25°C° 0 mm 4 mps 666 mmHg 36%
    09:00 +27°C° 0 mm 3 mps 667 mmHg 31%
    10:00 +29°C° 0 mm 3 mps 667 mmHg 27%
    11:00 +31°C° 0 mm 3 mps 666 mmHg 26%
    12:00 +32°C° 0 mm 2 mps 666 mmHg 26%
    13:00 +35°C° 0 mm 2 mps 665 mmHg 26%
    14:00 +35°C° 0 mm 2 mps 665 mmHg 25%
    15:00 +35°C° 0 mm 2 mps 664 mmHg 25%
    16:00 +36°C° 0 mm 2 mps 664 mmHg 24%
    17:00 +35°C° 0 mm 2 mps 664 mmHg 26%
    18:00 +35°C° 0 mm 2 mps 664 mmHg 27%
    19:00 +34°C° 0 mm 2 mps 665 mmHg 29%
    20:00 +31°C° 0.3 mm 3 mps 665 mmHg 32%
    21:00 +30°C° 0.3 mm 4 mps 665 mmHg 36%
    22:00 +28°C° 0.3 mm 5 mps 666 mmHg 39%
    23:00 +27°C° 0.5 mm 4 mps 665 mmHg 43%

    23 February, Friday

    Time Temperature Precipitation Wind Pressure Humidity
    00:00 +26°C° 0.5 mm 4 mps 665 mmHg 48%
    01:00 +25°C° 0.5 mm 3 mps 665 mmHg 52%
    02:00 +25°C° 0.1 mm 3 mps 664 mmHg 54%
    03:00 +24°C° 0.1 mm 3 mps 664 mmHg 55%
    04:00 +24°C° 0.1 mm 3 mps 664 mmHg 57%
    05:00 +24°C° 0 mm 3 mps 664 mmHg 57%
    06:00 +24°C° 0 mm 3 mps 665 mmHg 57%
    07:00 +24°C° 0 mm 3 mps 665 mmHg 57%
    08:00 +26°C° 0 mm 3 mps 665 mmHg 51%
    09:00 +27°C° 0 mm 2 mps 666 mmHg 46%
    10:00 +29°C° 0 mm 2 mps 666 mmHg 41%
    11:00 +31°C° 0 mm 2 mps 666 mmHg 37%
    12:00 +32°C° 0 mm 1 mps 665 mmHg 33%
    13:00 +34°C° 0 mm 1 mps 665 mmHg 30%
    14:00 +34°C° 0 mm 1 mps 664 mmHg 27%
    15:00 +35°C° 0 mm 1 mps 664 mmHg 25%
    16:00 +36°C° 0 mm 2 mps 664 mmHg 23%
    17:00 +36°C° 0 mm 2 mps 664 mmHg 25%
    18:00 +35°C° 0 mm 2 mps 664 mmHg 27%
    19:00 +34°C° 0 mm 3 mps 664 mmHg 30%
    20:00 +32°C° 0 mm 4 mps 664 mmHg 33%
    21:00 +30°C° 0 mm 5 mps 665 mmHg 37%
    22:00 +29°C° 0 mm 6 mps 665 mmHg 41%
    23:00 +28°C° 0 mm 6 mps 665 mmHg 44%

    24 February, Saturday

    Time Temperature Precipitation Wind Pressure Humidity
    00:00 +27°C° 0 mm 5 mps 665 mmHg 47%
    01:00 +26°C° 0 mm 5 mps 665 mmHg 49%
    02:00 +25°C° 0 mm 4 mps 665 mmHg 50%
    03:00 +25°C° 0 mm 3 mps 665 mmHg 51%
    04:00 +24°C° 0 mm 2 mps 665 mmHg 52%
    05:00 +24°C° 0 mm 2 mps 665 mmHg 51%
    06:00 +24°C° 0 mm 2 mps 666 mmHg 50%
    07:00 +24°C° 0 mm 2 mps 666 mmHg 49%
    08:00 +26°C° 0 mm 3 mps 667 mmHg 43%
    09:00 +27°C° 0 mm 3 mps 667 mmHg 37%
    10:00 +29°C° 0 mm 3 mps 667 mmHg 31%
    11:00 +32°C° 0 mm 4 mps 667 mmHg 28%
    12:00 +33°C° 0 mm 4 mps 667 mmHg 25%
    13:00 +35°C° 0 mm 4 mps 666 mmHg 22%
    14:00 +35°C° 0 mm 4 mps 666 mmHg 22%
    15:00 +36°C° 0 mm 5 mps 666 mmHg 21%
    16:00 +36°C° 0 mm 5 mps 665 mmHg 20%
    17:00 +35°C° 0 mm 6 mps 665 mmHg 23%
    18:00 +33°C° 0 mm 6 mps 665 mmHg 25%
    19:00 +32°C° 0 mm 6 mps 666 mmHg 27%
    20:00 +29°C° 0 mm 6 mps 666 mmHg 31%
    21:00 +28°C° 0 mm 6 mps 666 mmHg 36%
    22:00 +26°C° 0 mm 6 mps 667 mmHg 40%
    23:00 +26°C° 0 mm 5 mps 666 mmHg 41%
    Show more